CZ-3C DEB, 42477

Orbit data source: Space-Track

CZ-3C DEB, 42477 is space debris in HEO originally from a launch on Fri, 24 Feb 2012 UTC launched from the Xichang Space Center, China (XSC). Debris objects in space refer to the collection of defunct objects orbiting the Earth. Examples of debris include non-operational satellites, rocket bodies, and fragments generated from explosions, collisions, or faulty payload assembly.

Loading next visibility...
Identifier
42477, 2012-008AM
Orbit
HEO
Country
Flag of CNCN / PRC
Related business
Manufacturer
CALT
Mission
Spacecraft
Bus & Motor
Unknown
Mass
Unknown
Launch date (UTC)
2012-02-24 (14 years ago)
Launch vehicle
Unknown
Launch site
Xichang Space Center, China (XSC)
Object type
Payload
Rocket body
Debris
Shape & HBR
Unknown
Radar Cross Section
Medium (>0.1 m² and <1 m²)

Expand to show TLE details & history
Last TLE update: 1 week ago

TLE from 1 week ago
0 CZ-3C DEB
1 42477U 12008AM  25251.77424202  .00004072  00000-0  52175-2 0  9993
2 42477  19.5200 155.6449 6936588 276.0257  15.4231  2.65844805 98411
Epoch: 2025-09-08T18:34Z
TLE epoch observation values (Epoch: 2025-09-08T18:34:54.51Z)
Latitude
0.00056°
Longitude
-111.1324°
Altitude
4,299.785 km
Speed
7.52 km/s
True Right ascension
10h 22m 40s
True Declination
0° 00' 02"
Sunlit
Object was in daylight at epoch
Visualization orbit readout
Latitude
Unknown
Longitude
Unknown
Altitude
Unknown
Speed
Unknown
Apparent Right ascension
Unknown
Apparent Declination
Unknown
Sunlit
N/A
Visualization observer readout
Local Sidereal Time
06:51:10
Azimuth
Unknown
Elevation
Unknown
Doppler factor
Unknown
Orbital elements
Apogee altitude
30,909.414 km
Perigee altitude
366.263 km
Semi-major axis
22,015.976 km
Eccentricity
0.69366
Inclination
19.52°
RAAN
155.6449°
Arg. of periapsis
276.0257°
True anomaly
84.18946°
Mean anomaly
15.4231°
Eccentric anomaly
42.03475°
Mean motion
0.66441 °/min
Orbital period
541.83 mins
BSTAR
0.0052175
Loading maneuver chart data...
Computing Atmospheric mass density...
Loading historical data...
Loading historical data...
Loading historical data...
Loading historical data...
Loading historical data...
Loading historical data...
Loading historical data...

Documentation

Showing up to 5 results
|